• In India
  • List of Countries
  • For 7 days
  • Water Temperature
  • Satellite Maps
  • Weather Map
  • Weather Widgets
  • user-avatar
    Login

    Hourly Weather Consaca

    Today, 15 August, Wednesday

    Time Temperature Precipitation Wind Pressure Humidity
    00:00 +16°C° 0 mm 1 mps 620 mmHg 85%
    01:00 +16°C° 0 mm 1 mps 620 mmHg 85%
    02:00 +16°C° 0 mm 2 mps 619 mmHg 84%
    03:00 +16°C° 0 mm 2 mps 619 mmHg 83%
    04:00 +16°C° 0 mm 2 mps 619 mmHg 82%
    05:00 +17°C° 0 mm 2 mps 619 mmHg 81%
    06:00 +17°C° 0 mm 2 mps 620 mmHg 79%
    07:00 +17°C° 0 mm 2 mps 620 mmHg 78%
    08:00 +19°C° 0 mm 2 mps 621 mmHg 70%
    09:00 +21°C° 0 mm 3 mps 622 mmHg 63%
    10:00 +24°C° 0 mm 3 mps 623 mmHg 55%
    11:00 +25°C° 0.1 mm 3 mps 622 mmHg 52%
    12:00 +25°C° 0.1 mm 4 mps 622 mmHg 49%
    13:00 +26°C° 0.1 mm 4 mps 622 mmHg 45%
    14:00 +25°C° 0.1 mm 4 mps 621 mmHg 48%
    15:00 +25°C° 0.1 mm 4 mps 621 mmHg 51%
    16:00 +23°C° 0.1 mm 4 mps 620 mmHg 53%
    17:00 +21°C° 0 mm 3 mps 620 mmHg 62%
    18:00 +19°C° 0 mm 3 mps 620 mmHg 71%
    19:00 +17°C° 0 mm 2 mps 619 mmHg 80%
    20:00 +16°C° 0 mm 2 mps 620 mmHg 79%
    21:00 +16°C° 0 mm 2 mps 620 mmHg 78%
    22:00 +16°C° 0 mm 2 mps 620 mmHg 77%
    23:00 +16°C° 0 mm 2 mps 620 mmHg 77%

    Tomorrow, 16 August, Thursday

    Time Temperature Precipitation Wind Pressure Humidity
    00:00 +16°C° 0 mm 2 mps 620 mmHg 77%
    01:00 +16°C° 0 mm 2 mps 620 mmHg 77%
    02:00 +16°C° 0 mm 2 mps 620 mmHg 78%
    03:00 +16°C° 0 mm 2 mps 620 mmHg 79%
    04:00 +16°C° 0 mm 2 mps 619 mmHg 79%
    05:00 +16°C° 0 mm 2 mps 620 mmHg 78%
    06:00 +17°C° 0 mm 2 mps 620 mmHg 77%
    07:00 +17°C° 0 mm 2 mps 621 mmHg 76%
    08:00 +19°C° 0 mm 2 mps 621 mmHg 70%
    09:00 +20°C° 0 mm 3 mps 622 mmHg 65%
    10:00 +22°C° 0 mm 3 mps 623 mmHg 60%
    11:00 +22°C° 0.1 mm 3 mps 623 mmHg 58%
    12:00 +24°C° 0.1 mm 3 mps 623 mmHg 57%
    13:00 +25°C° 0.1 mm 3 mps 622 mmHg 55%
    14:00 +24°C° 0.2 mm 3 mps 622 mmHg 57%
    15:00 +24°C° 0.2 mm 3 mps 621 mmHg 58%
    16:00 +22°C° 0.2 mm 3 mps 621 mmHg 60%
    17:00 +21°C° 0.1 mm 3 mps 621 mmHg 67%
    18:00 +19°C° 0.1 mm 2 mps 620 mmHg 75%
    19:00 +17°C° 0.1 mm 2 mps 620 mmHg 83%
    20:00 +17°C° 0 mm 2 mps 621 mmHg 81%
    21:00 +16°C° 0 mm 2 mps 621 mmHg 80%
    22:00 +16°C° 0 mm 2 mps 622 mmHg 78%
    23:00 +16°C° 0 mm 2 mps 621 mmHg 79%

    Day after tomorrow, 17 August, Friday

    Time Temperature Precipitation Wind Pressure Humidity
    00:00 +16°C° 0 mm 2 mps 621 mmHg 80%
    01:00 +16°C° 0 mm 2 mps 621 mmHg 81%
    02:00 +16°C° 0 mm 2 mps 621 mmHg 81%
    03:00 +16°C° 0 mm 2 mps 620 mmHg 81%
    04:00 +16°C° 0 mm 2 mps 620 mmHg 81%
    05:00 +16°C° 0 mm 2 mps 621 mmHg 79%
    06:00 +16°C° 0 mm 2 mps 621 mmHg 77%
    07:00 +17°C° 0 mm 2 mps 621 mmHg 75%
    08:00 +19°C° 0 mm 2 mps 622 mmHg 68%
    09:00 +21°C° 0 mm 3 mps 623 mmHg 61%
    10:00 +24°C° 0 mm 3 mps 624 mmHg 54%
    11:00 +25°C° 0.1 mm 3 mps 624 mmHg 52%
    12:00 +25°C° 0.1 mm 3 mps 623 mmHg 51%
    13:00 +26°C° 0.1 mm 3 mps 623 mmHg 49%
    14:00 +25°C° 0.1 mm 3 mps 622 mmHg 51%
    15:00 +25°C° 0.1 mm 3 mps 622 mmHg 52%
    16:00 +23°C° 0.1 mm 4 mps 621 mmHg 53%
    17:00 +21°C° 0.1 mm 3 mps 621 mmHg 62%
    18:00 +19°C° 0.1 mm 2 mps 620 mmHg 71%
    19:00 +17°C° 0.1 mm 2 mps 620 mmHg 80%
    20:00 +16°C° 0 mm 2 mps 621 mmHg 79%
    21:00 +16°C° 0 mm 2 mps 621 mmHg 78%
    22:00 +16°C° 0 mm 2 mps 621 mmHg 77%
    23:00 +16°C° 0 mm 2 mps 621 mmHg 77%

    18 August, Saturday

    Time Temperature Precipitation Wind Pressure Humidity
    00:00 +16°C° 0 mm 2 mps 621 mmHg 78%
    01:00 +16°C° 0 mm 2 mps 621 mmHg 78%
    02:00 +16°C° 0 mm 2 mps 620 mmHg 79%
    03:00 +16°C° 0 mm 2 mps 620 mmHg 79%
    04:00 +16°C° 0 mm 2 mps 620 mmHg 80%
    05:00 +16°C° 0 mm 2 mps 620 mmHg 78%
    06:00 +16°C° 0 mm 2 mps 621 mmHg 77%
    07:00 +17°C° 0 mm 2 mps 621 mmHg 75%
    08:00 +19°C° 0 mm 2 mps 622 mmHg 66%
    09:00 +22°C° 0 mm 3 mps 623 mmHg 57%
    10:00 +25°C° 0 mm 3 mps 624 mmHg 48%
    11:00 +26°C° 0 mm 4 mps 623 mmHg 47%
    12:00 +26°C° 0 mm 4 mps 623 mmHg 46%
    13:00 +27°C° 0 mm 4 mps 622 mmHg 44%
    14:00 +26°C° 0.1 mm 4 mps 622 mmHg 47%
    15:00 +25°C° 0.1 mm 4 mps 621 mmHg 50%
    16:00 +25°C° 0.1 mm 4 mps 620 mmHg 52%
    17:00 +21°C° 0.1 mm 3 mps 620 mmHg 62%
    18:00 +19°C° 0.1 mm 2 mps 620 mmHg 71%
    19:00 +17°C° 0.1 mm 2 mps 619 mmHg 80%
    20:00 +16°C° 0 mm 2 mps 620 mmHg 80%
    21:00 +16°C° 0 mm 2 mps 620 mmHg 80%
    22:00 +16°C° 0 mm 2 mps 621 mmHg 79%
    23:00 +16°C° 0 mm 2 mps 620 mmHg 79%

    19 August, Sunday

    Time Temperature Precipitation Wind Pressure Humidity
    00:00 +16°C° 0 mm 2 mps 620 mmHg 79%
    01:00 +16°C° 0 mm 2 mps 620 mmHg 79%
    02:00 +16°C° 0 mm 2 mps 619 mmHg 79%
    03:00 +16°C° 0 mm 2 mps 619 mmHg 79%
    04:00 +15°C° 0 mm 2 mps 619 mmHg 79%
    05:00 +16°C° 0 mm 2 mps 619 mmHg 78%
    06:00 +17°C° 0 mm 2 mps 620 mmHg 76%
    07:00 +17°C° 0 mm 2 mps 621 mmHg 74%
    08:00 +19°C° 0 mm 2 mps 621 mmHg 68%
    09:00 +21°C° 0 mm 2 mps 622 mmHg 61%
    10:00 +24°C° 0 mm 3 mps 623 mmHg 55%
    11:00 +24°C° 0.1 mm 3 mps 623 mmHg 55%
    12:00 +24°C° 0.1 mm 3 mps 622 mmHg 55%
    13:00 +25°C° 0.1 mm 3 mps 621 mmHg 55%
    14:00 +24°C° 0.3 mm 3 mps 621 mmHg 56%
    15:00 +24°C° 0.3 mm 3 mps 620 mmHg 57%
    16:00 +23°C° 0.3 mm 4 mps 620 mmHg 57%
    17:00 +21°C° 0.2 mm 3 mps 620 mmHg 66%
    18:00 +19°C° 0.2 mm 2 mps 620 mmHg 74%
    19:00 +17°C° 0.2 mm 2 mps 620 mmHg 83%
    20:00 +17°C° 0 mm 2 mps 620 mmHg 82%
    21:00 +17°C° 0 mm 2 mps 620 mmHg 81%
    22:00 +17°C° 0 mm 2 mps 621 mmHg 80%
    23:00 +17°C° 0 mm 2 mps 621 mmHg 81%

    20 August, Monday

    Time Temperature Precipitation Wind Pressure Humidity
    00:00 +17°C° 0 mm 2 mps 620 mmHg 81%
    01:00 +17°C° 0 mm 2 mps 620 mmHg 82%
    02:00 +17°C° 0.1 mm 2 mps 620 mmHg 82%
    03:00 +17°C° 0.1 mm 2 mps 620 mmHg 82%
    04:00 +17°C° 0.1 mm 2 mps 620 mmHg 82%
    05:00 +17°C° 0 mm 2 mps 620 mmHg 81%
    06:00 +17°C° 0 mm 2 mps 620 mmHg 79%
    07:00 +17°C° 0 mm 2 mps 621 mmHg 78%
    08:00 +19°C° 0 mm 2 mps 622 mmHg 72%
    09:00 +20°C° 0 mm 3 mps 622 mmHg 66%
    10:00 +22°C° 0 mm 3 mps 623 mmHg 61%
    11:00 +22°C° 0.1 mm 3 mps 623 mmHg 60%
    12:00 +24°C° 0.1 mm 3 mps 622 mmHg 59%
    13:00 +24°C° 0.1 mm 3 mps 622 mmHg 58%
    14:00 +24°C° 0.3 mm 3 mps 621 mmHg 59%
    15:00 +24°C° 0.3 mm 3 mps 621 mmHg 60%
    16:00 +24°C° 0.3 mm 3 mps 621 mmHg 61%
    17:00 +21°C° 0.3 mm 3 mps 621 mmHg 69%
    18:00 +19°C° 0.3 mm 2 mps 620 mmHg 76%
    19:00 +17°C° 0.3 mm 2 mps 620 mmHg 84%
    20:00 +17°C° 0.1 mm 2 mps 621 mmHg 84%
    21:00 +17°C° 0.1 mm 2 mps 621 mmHg 84%
    22:00 +17°C° 0.1 mm 2 mps 621 mmHg 83%
    23:00 +17°C° 0 mm 2 mps 621 mmHg 83%
    Show more